User: anonymous   Login
Location: Civís
(42.4648°N, 1.4232°E)
Time: 23:04:17
(UTC+00:00)
Language:

Cosmos 1844 - Orbit

View from above orbital plane
View from above orbital plane
View from above satellite
View from above satellite

Ground track
Ground track

The orbit is defined by the following mean orbital elements,

1 17973U          26111.96020336 +.00000000 +00000-0 -12837-3 0 00005
2 17973  70.8986 302.9082 0032714 314.3889  45.4554 14.14562385    00
Epoch (UTC): 21 April 2026 23:02:41
Eccentricity: 0.0032714
inclination: 70.8986°
perigee height: 820 km
apogee height: 867 km
right ascension of ascending node: 302.9082°
argument of perigee: 314.3889°
revolutions per day: 14.14562385
mean anomaly at epoch: 45.4554°

The dashed part of the orbit path shows where the satellite is in the earth's shadow,  

DLR